Location: Ammerl�gen
(47.2167°N, 9.6000°E)
Time: 02:57:30
(UTC+00:00)

Meteor 2-17 Rocket - Pass Details

Date: 21 April 2021
Orbit: 936 x 955 km, 82.5° (Epoch: 16 May)

Event Time Altitude Azimuth Distance (km) Brightness Sun altitude
Rises 22:30:32 0° 348° (NNW) 3,635 8.7 -29.6°
Reaches altitude 10° 22:33:03 10° 347° (NNW) 2,688 7.7 -29.7°
Enters shadow 22:39:05 71° 270° (W) 1,007 4.5 -29.9°
